STARLINK-1516 (45749 NORAD) Tracking and Keplerian Element Data

This shows tracking and keplerian element data for the satellite.

Feedback or suggestion? Click here.




ElementValue
Catalog45749
NameSTARLINK-1516
Epoch Orbit427
Epoch Day185.50001157
Epoch Year2020
RAAN198.3077
Inclination52.9981
Eccentricity0.0001162
Argument of Perigee94.9886
Mean Anonmoly265.7001
Mean Motion15.62752198
Decay Rate-9.37E-06
L11 45749U 20038V 20185.50001157 -.00000937 00000-0 -44057-5 0 9993
L22 45749 52.9981 198.3077 0001162 94.9886 265.7001 15.62752198 4274

Live tracking and technical data element details for STARLINK-1516 (NORAD 45749). STARLINK-1516 can be tracked NOW for your location showing map with azimuth and elevation plus other details from your city location.

Track the satellite on the map from your city or location and see movement details for azimuth, elevation, latitude, longitude, range, height, and movement on the map or in text.







IsCatalogInMostPopularTable: catalog: 45749, numindb: 4
Update: records affected: 1



GetName: 45749 STARLINK-1516

Hit Count: updated at: Sat, 04 Jul 2020 02:31:07 GMT